Terminal Aerodrome Forecast
Issued by NWS

Home | Current Version | Previous Version | Text Only | Print | Product List | Glossary On
Versions: 1 2 3 4 5 6 7 8 9 10 11 12 13 14 15 16 17 18 19 20
000
FTUS46 KEKA 051334 AAA
TAFCEC
TAF AMD
KCEC 051334Z 0514/0612 VRB03KT 6SM BR BKN010
     FM051900 33008KT P6SM SCT010
     FM060600 16009KT 3SM BR BKN004=

USA.gov is the U.S. government's official web portal to all federal, state and local government web resources and services.